Hourly Data Report for November 19, 2004

SHERBROOKE A
QUEBEC

45°26'00.000" N
71°41'00.000" W
241.40 m
7028124
71610
YSC

Download Data

Hourly Data (November 2004)
Hourly Data Report for November 19, 2004
TIME
LST
Temp Definition
°C
Dew Point Definition
°C
Rel Hum Definition
%
Precip. Amount Definition
mm

Wind Dir Definition
10's deg

Wind Spd Definition
km/h
Visibility Definition
km
Stn Press Definition
kPa
Hmdx Definition


Wind Chill Definition


Weather Definition


00:00 6.6 6.4 99   22 6 1.3 98.70     Drizzle
01:00 6.4 6.0 97   29 4 0.5 98.70     Moderate Drizzle
02:00 7.2 7.1 99   25 6 5.6 98.74      
03:00 7.2 7.1 99   28 9 8.0 98.76      
04:00 6.7 5.9 95   31 13 15.0 98.78      
05:00 5.7 4.6 93   31 9 12.9 98.85      
06:00 4.7 3.1 89   32 9 15.0 98.93      
07:00 2.7 1.5 92   29 7 8.0 98.98      
08:00 2.7 1.9 94   28 7 12.9 99.05     Mainly Clear
09:00 3.4 1.8 89   29 9 19.3 99.11     Mainly Clear
10:00 4.1 2.0 86   26 9 19.3 99.10     Mainly Clear
11:00 5.5 1.6 76   28 15 24.1 99.09     Mostly Cloudy
12:00 5.6 0.8 71   30 17 24.1 99.10     Mainly Clear
13:00 6.1 -0.2 64   30 17 24.1 99.07     Mainly Clear
14:00 6.0 -0.4 63   30 19 24.1 99.09     Mostly Cloudy
15:00 5.7 -0.8 63   30 13 24.1 99.15     Mostly Cloudy
16:00 5.0 -1.5 63   30 15 24.1 99.17     Mostly Cloudy
17:00 3.9 -1.9 66   29 13 24.1 99.20     Mostly Cloudy
18:00 4.2 -1.9 64   31 13 15.0 99.25      
19:00 2.9 -3.4 63   33 15 15.0 99.30      
20:00 1.6 -4.1 66   33 7 15.0 99.38      
21:00 0.3 -4.5 70   33 6 15.0 99.42      
22:00 -1.0 -4.8 75   29 7 15.0 99.43   -4  
23:00 -0.7 -5.0 73   31 7 15.0 99.42   -3  

Notes on Data Quality.

Legend

  • E = Estimated
  • M = Missing
  • NA = Not Available*
  • [empty] = Indicates an unobserved value
Date modified: